When you browse on this site, cookies collect data to enhance your experience and personalize the content and advertising you see.
Visit our Privacy Policy to learn more. By continuing to use the site, you agree to this use of cookies and data.

Stündliche Wetter Montana

Heute, 12 August, Mittwoch

Zeit Temperatur Niederschläge Wind Luftdruck Luftfeuchtigkeit
00:00 +24°C° 0 mm 1 m/S 735 mmHg 63%
01:00 +24°C° 0 mm 1 m/S 734 mmHg 64%
02:00 +23°C° 0 mm 1 m/S 734 mmHg 66%
03:00 +23°C° 0 mm 1 m/S 734 mmHg 67%
04:00 +23°C° 0 mm 1 m/S 734 mmHg 68%
05:00 +22°C° 0 mm 1 m/S 734 mmHg 68%
06:00 +24°C° 0 mm 1 m/S 735 mmHg 66%
07:00 +25°C° 0 mm 1 m/S 735 mmHg 63%
08:00 +26°C° 0 mm 1 m/S 735 mmHg 61%
09:00 +28°C° 0.1 mm 1 m/S 735 mmHg 56%
10:00 +29°C° 0.1 mm 2 m/S 735 mmHg 51%
11:00 +30°C° 0.1 mm 2 m/S 735 mmHg 47%
12:00 +31°C° 0.4 mm 2 m/S 735 mmHg 45%
13:00 +32°C° 0.4 mm 2 m/S 734 mmHg 44%
14:00 +32°C° 0.4 mm 2 m/S 734 mmHg 42%
15:00 +32°C° 0.5 mm 2 m/S 734 mmHg 44%
16:00 +31°C° 0.5 mm 2 m/S 734 mmHg 45%
17:00 +31°C° 0.5 mm 2 m/S 734 mmHg 46%
18:00 +29°C° 0.2 mm 2 m/S 734 mmHg 51%
19:00 +28°C° 0.2 mm 1 m/S 734 mmHg 55%
20:00 +26°C° 0.2 mm 1 m/S 734 mmHg 60%
21:00 +25°C° 0.2 mm 1 m/S 734 mmHg 62%
22:00 +25°C° 0.2 mm 1 m/S 735 mmHg 65%
23:00 +24°C° 0.2 mm 1 m/S 735 mmHg 67%

Morgen, 13 August, Donnerstag

Zeit Temperatur Niederschläge Wind Luftdruck Luftfeuchtigkeit
00:00 +23°C° 0 mm 1 m/S 735 mmHg 68%
01:00 +23°C° 0 mm 1 m/S 735 mmHg 69%
02:00 +22°C° 0 mm 1 m/S 735 mmHg 70%
03:00 +22°C° 0 mm 1 m/S 735 mmHg 73%
04:00 +19°C° 0 mm 0 m/S 735 mmHg 76%
05:00 +19°C° 0 mm 0 m/S 735 mmHg 78%
06:00 +22°C° 0 mm 1 m/S 735 mmHg 76%
07:00 +23°C° 0 mm 1 m/S 736 mmHg 73%
08:00 +24°C° 0 mm 1 m/S 736 mmHg 70%
09:00 +25°C° 0.1 mm 1 m/S 736 mmHg 66%
10:00 +27°C° 0.1 mm 1 m/S 736 mmHg 62%
11:00 +28°C° 0.1 mm 2 m/S 736 mmHg 57%
12:00 +29°C° 0.2 mm 2 m/S 736 mmHg 54%
13:00 +30°C° 0.2 mm 2 m/S 735 mmHg 51%
14:00 +31°C° 0.2 mm 2 m/S 735 mmHg 49%
15:00 +31°C° 0.1 mm 1 m/S 735 mmHg 47%
16:00 +31°C° 0.1 mm 1 m/S 735 mmHg 46%
17:00 +31°C° 0.1 mm 1 m/S 734 mmHg 45%
18:00 +29°C° 0 mm 1 m/S 734 mmHg 50%
19:00 +27°C° 0 mm 1 m/S 734 mmHg 55%
20:00 +25°C° 0 mm 1 m/S 734 mmHg 61%
21:00 +25°C° 0 mm 1 m/S 734 mmHg 62%
22:00 +24°C° 0 mm 1 m/S 734 mmHg 63%
23:00 +24°C° 0 mm 1 m/S 734 mmHg 65%

übermorgen, 14 August, Freitag

Zeit Temperatur Niederschläge Wind Luftdruck Luftfeuchtigkeit
00:00 +23°C° 0 mm 1 m/S 734 mmHg 65%
01:00 +23°C° 0 mm 1 m/S 734 mmHg 66%
02:00 +23°C° 0 mm 1 m/S 734 mmHg 67%
03:00 +22°C° 0 mm 1 m/S 734 mmHg 68%
04:00 +22°C° 0 mm 1 m/S 734 mmHg 69%
05:00 +22°C° 0 mm 1 m/S 734 mmHg 70%
06:00 +23°C° 0 mm 1 m/S 734 mmHg 67%
07:00 +24°C° 0 mm 1 m/S 734 mmHg 64%
08:00 +24°C° 0 mm 0 m/S 734 mmHg 61%
09:00 +28°C° 0 mm 1 m/S 734 mmHg 55%
10:00 +29°C° 0 mm 1 m/S 734 mmHg 50%
11:00 +31°C° 0 mm 1 m/S 734 mmHg 44%
12:00 +32°C° 0 mm 1 m/S 734 mmHg 41%
13:00 +33°C° 0 mm 1 m/S 733 mmHg 37%
14:00 +33°C° 0 mm 1 m/S 733 mmHg 34%
15:00 +33°C° 0 mm 1 m/S 733 mmHg 35%
16:00 +33°C° 0 mm 1 m/S 732 mmHg 36%
17:00 +32°C° 0 mm 1 m/S 732 mmHg 37%
18:00 +30°C° 0 mm 1 m/S 732 mmHg 41%
19:00 +28°C° 0 mm 1 m/S 732 mmHg 46%
20:00 +26°C° 0 mm 1 m/S 732 mmHg 51%
21:00 +26°C° 0 mm 1 m/S 732 mmHg 52%
22:00 +25°C° 0 mm 1 m/S 732 mmHg 53%
23:00 +25°C° 0 mm 1 m/S 733 mmHg 54%

15 August, Samstag

Zeit Temperatur Niederschläge Wind Luftdruck Luftfeuchtigkeit
00:00 +24°C° 0 mm 1 m/S 733 mmHg 54%
01:00 +24°C° 0 mm 1 m/S 733 mmHg 55%
02:00 +24°C° 0 mm 1 m/S 733 mmHg 56%
03:00 +23°C° 0 mm 1 m/S 733 mmHg 57%
04:00 +23°C° 0 mm 1 m/S 732 mmHg 58%
05:00 +22°C° 0 mm 1 m/S 732 mmHg 59%
06:00 +23°C° 0.3 mm 1 m/S 732 mmHg 60%
07:00 +24°C° 0.3 mm 1 m/S 733 mmHg 61%
08:00 +25°C° 0.3 mm 1 m/S 733 mmHg 61%
09:00 +26°C° 0.7 mm 1 m/S 733 mmHg 59%
10:00 +27°C° 0.7 mm 2 m/S 733 mmHg 58%
11:00 +28°C° 0.7 mm 2 m/S 733 mmHg 56%
12:00 +29°C° 1 mm 2 m/S 733 mmHg 54%
13:00 +29°C° 1 mm 1 m/S 732 mmHg 52%
14:00 +30°C° 1 mm 1 m/S 732 mmHg 50%
15:00 +29°C° 0.5 mm 1 m/S 732 mmHg 53%
16:00 +29°C° 0.5 mm 2 m/S 732 mmHg 56%
17:00 +28°C° 0.5 mm 2 m/S 731 mmHg 60%
18:00 +26°C° 0.5 mm 2 m/S 732 mmHg 65%
19:00 +25°C° 0.5 mm 1 m/S 732 mmHg 71%
20:00 +23°C° 0.5 mm 1 m/S 732 mmHg 77%
21:00 +23°C° 0.4 mm 1 m/S 732 mmHg 78%
22:00 +22°C° 0.4 mm 1 m/S 732 mmHg 79%
23:00 +22°C° 0.4 mm 1 m/S 733 mmHg 80%

16 August, Sonntag

Zeit Temperatur Niederschläge Wind Luftdruck Luftfeuchtigkeit
00:00 +21°C° 0 mm 1 m/S 733 mmHg 80%
01:00 +21°C° 0 mm 1 m/S 733 mmHg 81%
02:00 +20°C° 0 mm 1 m/S 732 mmHg 82%
03:00 +20°C° 0 mm 1 m/S 732 mmHg 81%
04:00 +19°C° 0 mm 1 m/S 732 mmHg 81%
05:00 +19°C° 0 mm 1 m/S 732 mmHg 80%
06:00 +20°C° 0 mm 1 m/S 733 mmHg 76%
07:00 +22°C° 0 mm 1 m/S 733 mmHg 72%
08:00 +23°C° 0 mm 1 m/S 733 mmHg 68%
09:00 +24°C° 0 mm 1 m/S 734 mmHg 63%
10:00 +26°C° 0 mm 1 m/S 734 mmHg 57%
11:00 +28°C° 0 mm 2 m/S 734 mmHg 51%
12:00 +28°C° 0.1 mm 2 m/S 734 mmHg 48%
13:00 +29°C° 0.1 mm 2 m/S 734 mmHg 46%
14:00 +30°C° 0.1 mm 2 m/S 733 mmHg 43%
15:00 +30°C° 0.2 mm 2 m/S 733 mmHg 44%
16:00 +30°C° 0.1 mm 2 m/S 733 mmHg 44%
17:00 +30°C° 0.1 mm 2 m/S 733 mmHg 44%
18:00 +28°C° 0 mm 2 m/S 733 mmHg 48%
19:00 +26°C° 0 mm 3 m/S 733 mmHg 52%
20:00 +25°C° 0 mm 3 m/S 733 mmHg 56%
21:00 +23°C° 0 mm 2 m/S 734 mmHg 58%
22:00 +21°C° 0 mm 2 m/S 734 mmHg 60%
23:00 +21°C° 0 mm 1 m/S 734 mmHg 62%

17 August, Montag

Zeit Temperatur Niederschläge Wind Luftdruck Luftfeuchtigkeit
00:00 +21°C° 0 mm 1 m/S 734 mmHg 64%
01:00 +20°C° 0 mm 1 m/S 734 mmHg 65%
02:00 +20°C° 0 mm 1 m/S 734 mmHg 67%
03:00 +19°C° 0 mm 1 m/S 734 mmHg 70%
04:00 +19°C° 0 mm 1 m/S 734 mmHg 72%
05:00 +18°C° 0 mm 1 m/S 734 mmHg 75%
06:00 +20°C° 0 mm 1 m/S 735 mmHg 71%
07:00 +21°C° 0 mm 1 m/S 735 mmHg 67%
08:00 +22°C° 0 mm 1 m/S 735 mmHg 63%
09:00 +24°C° 0 mm 1 m/S 735 mmHg 58%
10:00 +26°C° 0 mm 2 m/S 736 mmHg 54%
11:00 +27°C° 0 mm 2 m/S 736 mmHg 49%
12:00 +28°C° 0.1 mm 3 m/S 736 mmHg 47%
13:00 +29°C° 0.1 mm 3 m/S 735 mmHg 44%
14:00 +30°C° 0.1 mm 3 m/S 735 mmHg 41%
15:00 +30°C° 0.1 mm 3 m/S 735 mmHg 40%
16:00 +30°C° 0.1 mm 3 m/S 735 mmHg 39%
17:00 +30°C° 0.1 mm 3 m/S 734 mmHg 38%
18:00 +28°C° 0 mm 3 m/S 734 mmHg 42%
19:00 +26°C° 0 mm 2 m/S 734 mmHg 46%
20:00 +24°C° 0 mm 1 m/S 734 mmHg 50%
21:00 +23°C° 0 mm 1 m/S 735 mmHg 51%
22:00 +22°C° 0 mm 1 m/S 735 mmHg 52%
23:00 +22°C° 0 mm 1 m/S 735 mmHg 52%
Mehr zeigen